Waarnemingen

Advertentie
Mijn weer
Hemavan A, Zweden (2101): temperatuur & dauwpunt: 10.01.2018 10:00:00 - 16.01.2018 10:00:00 (CET)Hemavan A, Zweden (2101): windsnelheid: 10.01.2018 10:00:00 - 16.01.2018 10:00:00 (CET)Hemavan A, Zweden (2101): windrichting: 10.01.2018 10:00:00 - 16.01.2018 10:00:00 (CET)Hemavan A, Zweden (2101): luchtdruk: 10.01.2018 10:00:00 - 16.01.2018 10:00:00 (CET)Hemavan A, Zweden (2101): zicht: 10.01.2018 10:00:00 - 16.01.2018 10:00:00 (CET)
Datum & Tijd tt [°C] td [°C] ff [km/u] ff [kn] dd ppp [hPa] vv [km]
16.01.2018 10:00:00 -3,0 -5,7 47 25 ZO 988,2 1,3
16.01.2018 09:00:00 -3,2 -5,8 58 31 ZO 987,8 0,9
16.01.2018 08:00:00 -3,3 -6,3 68 37 ZO 987,3 0,5
16.01.2018 07:00:00 -3,6 -6,2 50 27 ZO 988,7 1,0
16.01.2018 06:00:00 -4,1 -6,6 47 25 ZO 989,8 0,7
16.01.2018 05:00:00 -4,8 -6,6 50 27 ZO 990,0 0,4
16.01.2018 04:00:00 -4,8 -7,2 61 33 ZO 990,2 0,7
16.01.2018 03:00:00 -4,7 -7,5 61 33 ZO 990,7 0,9
16.01.2018 02:00:00 -5,2 -7,5 47 25 ZO 992,6 0,4
16.01.2018 01:00:00 -5,6 -8,0 61 33 ZO 992,7 0,6
16.01.2018 00:00:00 -6,5 -8,8 54 29 ZO 994,6 0,3
15.01.2018 23:00:00 -6,7 -10,1 54 29 ZO 995,8 1,7
15.01.2018 22:00:00 -6,4 -9,9 54 29 ZO 996,3 5
15.01.2018 21:00:00 -6,0 -9,7 40 21 ZO 997,3 3,9
15.01.2018 20:00:00 -6,2 -9,7 43 23 ZO 997,9 3,0
15.01.2018 19:00:00 -6,4 -9,8 43 23 ZO 998,8 3,5
15.01.2018 18:00:00 -6,8 -9,8 47 25 ZO 999,2 2,9
15.01.2018 17:00:00 -6,9 -10,2 50 27 ZO 1000,1 7
15.01.2018 16:00:00 -7,2 -10,9 50 27 ZO 1000,6 5
15.01.2018 15:00:00 -7,0 -11,0 54 29 ZO 1000,9 4,9
15.01.2018 14:00:00 -7,0 -10,8 36 19 ZO 1001,9 8
15.01.2018 13:00:00 -6,4 -11,0 54 29 ZO 1002,1 16
15.01.2018 12:00:00 -6,0 -10,8 36 19 OZO 1004,0 6
15.01.2018 11:00:00 -5,5 -10,3 40 21 OZO 1004,6 9
15.01.2018 10:00:00 -5,3 -9,9 43 23 ZO 1005,1 6
15.01.2018 09:00:00 -5,5 -9,7 36 19 ZO 1005,8 5
15.01.2018 08:00:00 -5,7 -9,9 32 18 ZZO 1006,1 10
15.01.2018 07:00:00 -6,0 -10,2 36 19 ZZO 1006,4 11
15.01.2018 06:00:00 -5,9 -10,5 25 14 ZZO 1007,6 50
15.01.2018 05:00:00 -6,4 -10,8 11 6 ZZO 1008,3 50
15.01.2018 04:00:00 -6,4 -11,3 22 12 ZO 1009,1 50
15.01.2018 03:00:00 -7,3 -11,7 36 19 ZO 1009,2 50
15.01.2018 02:00:00 -7,4 -11,9 18 10 OZO 1011,1 50
15.01.2018 01:00:00 -8,5 -11,6 11 6 OZO 1012,5 50
15.01.2018 00:00:00 -9,7 -11,2 7 4 ZO 1013,5 50
14.01.2018 23:00:00 -9,3 -10,6 14 8 ZO 1013,7 50
14.01.2018 22:00:00 -10,3 -11,3 7 4 Z 1014,8 50
14.01.2018 21:00:00 -10,6 -11,9 7 4 ZZO 1016,0 50
14.01.2018 20:00:00 -11,2 -12,5 7 4 O 1017,3 50
14.01.2018 19:00:00 -16,9 -18,5 7 4 N 1018,5 50
14.01.2018 18:00:00 -17,4 -19,3 4 2 ZZO 1020,6 50
14.01.2018 17:00:00 -19,3 -21,5 0 0 N 1022,0 50
14.01.2018 16:00:00 -17,2 -18,8 7 4 OZO 1022,9 50
14.01.2018 15:00:00 -23,0 -25,4 0 0 N 1024,0 35
14.01.2018 14:00:00 -22,8 -25,2 4 2 NNW 1025,5 45
14.01.2018 13:00:00 -23,0 -25,5 4 2 NNW 1026,2 40
14.01.2018 12:00:00 -22,9 -25,3 0 0 N 1027,0 11
14.01.2018 11:00:00 -20,3 -22,4 4 2 N 1027,6 30
14.01.2018 10:00:00 -19,1 -21,1 0 0 N 1027,5 45
14.01.2018 09:00:00 -20,5 -22,5 4 2 O 1028,0 50
14.01.2018 08:00:00 -18,7 -20,5 11 6 OZO 1027,8 50
14.01.2018 07:00:00 -19,8 -21,9 7 4 ZO 1027,9 50
14.01.2018 06:00:00 -17,8 -19,7 11 6 O 1028,1 50
14.01.2018 05:00:00 -17,8 -19,7 11 6 O 1028,5 50
14.01.2018 04:00:00 -17,4 -19,1 7 4 O 1029,3 50
14.01.2018 03:00:00 -16,4 -18,1 7 4 O 1029,9 40
14.01.2018 02:00:00 -15,4 -16,9 7 4 OZO 1030,8 45
14.01.2018 01:00:00 -14,8 -16,3 7 4 O 1031,3 45
14.01.2018 00:00:00 -13,4 -14,8 7 4 OZO 1031,5 40
13.01.2018 23:00:00 -12,1 -13,5 7 4 ZO 1031,6 30
13.01.2018 22:00:00 -11,3 -12,6 7 4 ZO 1031,6 28
13.01.2018 21:00:00 -10,8 -11,8 7 4 ZO 1031,9 30
13.01.2018 20:00:00 -10,3 -11,3 7 4 ZO 1032,4 40
13.01.2018 19:00:00 -9,8 -10,9 7 4 ZO 1032,9 12
13.01.2018 18:00:00 -9,2 -10,3 7 4 ZZO 1032,9 9
13.01.2018 17:00:00 -8,8 -9,9 7 4 ZZO 1033,0 5
13.01.2018 16:00:00 -8,2 -9,1 4 2 ZZO 1033,4 2,4
13.01.2018 15:00:00 -7,7 -8,6 4 2 ZO 1033,6 2,4
13.01.2018 14:00:00 -7,5 -8,4 4 2 ZO 1034,2 2,1
13.01.2018 13:00:00 -7,1 -7,9 4 2 OZO 1034,4 1,1
13.01.2018 12:00:00 -6,8 -7,6 4 2 ZO 1034,7 3,8
13.01.2018 11:00:00 -6,9 -7,7 4 2 OZO 1035,0 11
13.01.2018 10:00:00 -6,8 -7,6 7 4 OZO 1035,3 18
13.01.2018 09:00:00 -6,5 -7,3 7 4 OZO 1035,2 8
13.01.2018 08:00:00 -6,2 -7,0 7 4 O 1035,3 2,3
13.01.2018 07:00:00 -6,0 -6,5 7 4 ZO 1035,5 8
13.01.2018 06:00:00 -5,6 -6,1 7 4 ZO 1035,5 3,9
13.01.2018 05:00:00 -5,1 -5,6 4 2 OZO 1035,6 20
13.01.2018 04:00:00 -6,8 -7,6 0 0 N 1036,2 2,3
13.01.2018 03:00:00 -6,9 -7,7 0 0 N 1036,7 1,6
13.01.2018 02:00:00 -7,1 -8,0 0 0 N 1037,0 35
13.01.2018 01:00:00 -7,4 -8,3 0 0 N 1037,1 45
13.01.2018 00:00:00 -7,7 -8,6 0 0 N 1037,6 45
12.01.2018 23:00:00 -8,1 -9,0 0 0 N 1037,8 40
12.01.2018 22:00:00 -8,6 -9,7 0 0 N 1037,7 45
12.01.2018 21:00:00 -9,6 -10,7 0 0 N 1037,7 50
12.01.2018 20:00:00 -10,9 -11,9 0 0 N 1037,7 19
12.01.2018 19:00:00 -12,8 -14,2 0 0 N 1037,9 50
12.01.2018 18:00:00 -13,9 -15,5 0 0 N 1037,7 50
12.01.2018 17:00:00 -12,7 -14,1 4 2 NW 1037,8 50
12.01.2018 16:00:00 -10,9 -12,2 4 2 NNO 1037,3 50
12.01.2018 15:00:00 -9,9 -11,0 0 0 N 1037,2 50
12.01.2018 14:00:00 -9,0 -10,1 0 0 N 1036,8 45
12.01.2018 13:00:00 -8,8 -9,9 0 0 N 1036,4 45
12.01.2018 12:00:00 -9,8 -10,9 0 0 N 1036,2 50
12.01.2018 11:00:00 -10,6 -11,9 0 0 N 1036,1 50
12.01.2018 10:00:00 -10,8 -12,1 0 0 N 1035,4 45
12.01.2018 09:00:00 -11,5 -12,8 4 2 ZZO 1034,9 50
12.01.2018 08:00:00 -12,1 -13,5 0 0 N 1034,7 50
12.01.2018 07:00:00 -12,8 -14,2 0 0 N 1034,4 50
12.01.2018 06:00:00 -13,5 -15,1 0 0 N 1034,2 45
12.01.2018 05:00:00 -14,2 -15,7 0 0 N 1033,9 50
12.01.2018 04:00:00 -15,0 -16,5 0 0 N 1033,7 50
12.01.2018 03:00:00 -15,9 -17,7 0 0 N 1033,8 50
12.01.2018 02:00:00 -17,0 -18,9 0 0 N 1033,1 50
12.01.2018 01:00:00 -18,1 -20,1 0 0 N 1033,0 50
12.01.2018 00:00:00 -19,9 -22,0 0 0 N 1032,9 50
11.01.2018 23:00:00 -20,4 -22,5 0 0 N 1032,5 45
11.01.2018 22:00:00 -20,9 -23,2 0 0 N 1032,0 50
11.01.2018 21:00:00 -20,3 -22,4 0 0 N 1031,5 50
11.01.2018 20:00:00 -20,4 -22,5 4 2 ZZO 1031,3 20
11.01.2018 19:00:00 -21,0 -23,3 0 0 N 1031,2 45
11.01.2018 18:00:00 -21,1 -23,4 0 0 N 1031,0 50
11.01.2018 17:00:00 -21,3 -23,5 0 0 N 1030,9 50
11.01.2018 16:00:00 -21,7 -23,9 0 0 N 1030,7 45
11.01.2018 15:00:00 -21,8 -24,0 0 0 N 1030,3 50
11.01.2018 14:00:00 -22,3 -24,5 0 0 N 1030,0 50
11.01.2018 13:00:00 -23,2 -25,6 0 0 N 1030,1 40
11.01.2018 12:00:00 -24,0 -26,3 0 0 N 1029,9 8
11.01.2018 11:00:00 -25,3 -27,7 0 0 N 1030,0 45
11.01.2018 10:00:00 -26,8 -29,3 0 0 N 1029,8 40
11.01.2018 09:00:00 -27,6 -30,4 0 0 N 1029,4 45
11.01.2018 08:00:00 -27,0 -29,5 0 0 N 1028,8 45
11.01.2018 07:00:00 -26,8 -29,3 0 0 N 1028,6 50
11.01.2018 06:00:00 -26,8 -29,3 0 0 N 1028,4 45
11.01.2018 05:00:00 -27,1 -29,6 0 0 N 1028,5 25
11.01.2018 04:00:00 -26,4 -29,1 0 0 N 1028,6 45
11.01.2018 03:00:00 -27,0 -29,8 0 0 N 1028,6 12
11.01.2018 02:00:00 -26,2 -28,9 0 0 N 1028,6 45
11.01.2018 01:00:00 -25,8 -28,3 0 0 N 1028,5 40
11.01.2018 00:00:00 -26,0 -28,6 0 0 N 1028,4 50
10.01.2018 23:00:00 -25,7 -28,3 0 0 N 1028,0 40
10.01.2018 22:00:00 -25,7 -28,4 0 0 N 1027,9 45
10.01.2018 21:00:00 -25,2 -27,6 0 0 N 1027,8 22
10.01.2018 20:00:00 -24,8 -27,2 0 0 N 1027,7 28
10.01.2018 19:00:00 -23,6 -25,9 0 0 N 1027,2 8
10.01.2018 18:00:00 -23,5 -25,8 0 0 N 1027,0 9
10.01.2018 17:00:00 -23,1 -25,4 0 0 N 1027,0 20
10.01.2018 16:00:00 -22,1 -24,3 0 0 N 1026,8 12
10.01.2018 15:00:00 -20,8 -23,1 0 0 N 1026,7 18
10.01.2018 14:00:00 -19,1 -21,3 0 0 N 1026,7 11
10.01.2018 13:00:00 -17,8 -19,8 0 0 N 1026,8 5
10.01.2018 12:00:00 -16,8 -18,7 0 0 N 1026,6 11
10.01.2018 11:00:00 -16,2 -17,9 0 0 N 1026,7 0,4
10.01.2018 10:00:00 -15,5 -17,3 0 0 N 1026,4 0,7

tt = temperatuur
td = dauwpunt
ff = windsnelheid
dd = windrichting
ppp = luchtdruk
vv = zicht

Weerstations in de omgeving